{"data":{"norad_id":59417,"intl_designator":"2024-064V","name":"STARLINK-31401","alt_names":[],"object_type":"PAYLOAD","status":"ACTIVE","operator":null,"country":"US","launch_date":"2024-04-05","launch_site_code":"AFETR","launch_vehicle":null,"mission":null,"orbit_class":"UNKNOWN","rcs_meters":null,"size_class":null,"mass_kg":null,"dimensions":null,"purposes":["comms"],"wikipedia_slug":null,"has_3d_model":false,"image_url":null,"decayed_at":null,"tle_current":{"epoch":"2026-09-21T15:21:18.262080Z","epoch_age_seconds":66904,"freshness":"FRESH","line1":"1 59417U 24064V   26264.63979470 -.00000454  00000+0 -69893-5 0  9991","line2":"2 59417  43.0040  22.6369 0001148 272.9330  87.1390 15.27581544139022","mean_motion":15.27581544,"eccentricity":0.0001148,"inclination_deg":43.004,"raan_deg":22.6369,"arg_perigee_deg":272.933,"mean_anomaly_deg":87.139,"bstar":-6.9893e-6,"rev_number":13902,"period_min":94.266653433723,"perigee_km":482.25680911902,"apogee_km":483.83213638517,"semimajor_km":6861.1814727521,"source":"CELESTRAK","updated_at":"2026-09-22T09:00:48.918061Z"}}}